Regional Weather Roundup
Issued by NWS

Home | Current Version | Previous Version | Text Only | Print | Product List | Glossary On
Versions: 1 2 3 4 5 6 7 8 9 10 11 12 13 14 15 16 17 18 19 20 21 22 23 24 25 26 27 28 29 30 31 32 33 34 35 36 37 38 39 40 41 42 43 44 45 46 47 48 49
000
ASUS43 KMPX 271510
RWRMN
WEATHER ROUNDUP FOR MINNESOTA
NATIONAL WEATHER SERVICE TWIN CITIES/CHANHASSEN MN
900 AM CST SAT FEB 27 2021


NOTE: "FAIR" INDICATES FEW OR NO CLOUDS BELOW 12,000 FEET WITH NO
SIGNIFICANT WEATHER AND/OR OBSTRUCTIONS TO VISIBILITY. N/A MEANS
CURRENT SKY AND/OR WEATHER CONDITIONS ARE NOT AVAILABLE.

MNZ060>063-068>070-271600-
   Twin Cities Metro

CITY           SKY/WX    TMP DP  RH WIND       PRES   REMARKS
TWIN CITIES    SUNNY     34  28  79 SW6       29.85R WCI  29
ST PAUL        SUNNY     33  28  81 E3        29.86R
CRYSTAL        SUNNY     34  28  79 SW6       29.84R WCI  29
BLAINE         SUNNY     36  30  80 W7        29.83R
LAKEVILLE      SUNNY     36  27  69 CALM      29.85R
EDEN PRAIRIE   SUNNY     32  28  85 SW6       29.84R WCI  26
SOUTH ST PAUL  SUNNY     32  28  86 CALM      29.85R
LAKE ELMO      FAIR      28  27  93 MISG      29.85R
$$
MNZ001>005-007-008-013>017-022>024-027-028-271600-
   Northwest Minnesota

CITY           SKY/WX    TMP DP  RH WIND       PRES   REMARKS
BEMIDJI        CLOUDY    19  18  96 NW6       29.86R WCI  11
HALLOCK        PTSUNNY    0  -6  78 CALM      29.99R
ROSEAU         LGT SNOW  12   0  57 N9        29.93R WCI   0
WARROAD        FLURRIES   9   3  78 NW5       29.92R WCI   0
THIEF RVR FALL CLOUDY     8   4  83 N10       29.93R WCI  -6
CROOKSTON      LGT SNOW   7   3  85 N12       29.96R WCI  -9
FOSSTON        LGT SNOW  10   9  92 N8        29.90  WCI  -1
DETROIT LAKES  CLOUDY    19  18  93 N9        29.86R FOG     WCI   9
MOORHEAD       LGT SNOW  12   7  79 N15       29.93R WCI  -4
PARK RAPIDS    CLOUDY    26  23  88 VRB3      29.82R
MAHNOMEN       CLOUDY    15  13  94 N10       29.88R WCI   2
$$
MNZ006-009>011-018-025>026-271600-
   North Central Minnesota

CITY           SKY/WX    TMP DP  RH WIND       PRES   REMARKS
BAUDETTE       CLOUDY    11   7  84 N9        29.89R WCI  -2
FLAG ISLAND    FLURRIES   3  -2  78 N14       29.93R WCI -15
INTL FALLS     CLOUDY    18  10  71 NE8       29.86R WCI   8
WASKISH        CLOUDY    16  10  79 N3        29.88R
BIG FORK       CLOUDY    23  19  86 N3        29.89R
GRAND RAPIDS   CLOUDY    28  24  85 N8        29.84R WCI  20
CRANE LAKE       N/A     21  18  86 N5        29.87R WCI  15
ORR            CLOUDY    27  21  80 NW3       29.80R
COOK           CLOUDY    28  23  80 NW6       29.81R WCI  22
WALKER         CLOUDY    25  22  89 NW5       29.84R WCI  19
$$
MNZ012-019>021-037-271600-
   Northeast Minnesota

CITY           SKY/WX    TMP DP  RH WIND       PRES   REMARKS
DULUTH         CLOUDY    32  27  81 N5        29.79R WCI  27
ELY            CLOUDY    30  23  74 NW7       29.80R WCI  23
HIBBING        CLOUDY    29  23  78 NW10      29.80R WCI  20
EVELETH        CLOUDY    31  24  76 NW8       29.81R WCI  23
DULUTH HARBOR  CLOUDY    34  28  80 CALM      29.84R
TWO HARBORS    MOSUNNY   36  25  64 CALM      29.79R
SILVER BAY     PTSUNNY   34  25  69 CALM      29.78R
GRAND MARAIS     N/A     38  27  64 VRB3      29.78R
G MARAIS ARPRT PTSUNNY   34  25  69 NW10      29.73R WCI  26
$$
MNZ029>031-032-039>041-046>048-054>057-064-271600-
   West Central Minnesota

CITY           SKY/WX    TMP DP  RH WIND       PRES   REMARKS
FERGUS FALLS   CLOUDY    25  23  93 N6        29.82R WCI  18
WHEATON        CLOUDY    27  27 100 N8        29.89R FOG     WCI  18
MORRIS         FOG       27  27 100 N5        29.87R VSB<1/4 WCI  21
ALEXANDRIA     FOG       27  26  96 CALM      29.85R VSB 1/4
ELBOW LAKE     CLOUDY    27  27 100 N5        29.85R FOG     WCI  22
WADENA         CLOUDY    27  27 100 CALM      29.84R
GLENWOOD       FOG       23  21  93 N5        29.85R VSB<1/4 WCI  17
APPLETON       FOG       30  28  93 N6        29.86R VSB 1   WCI  24
BENSON         CLOUDY    25  25 100 NE6       29.86R FOG     WCI  18
ORTONVILLE     FOG       28  27  93 N7        29.86R VSB 1   WCI  21
MADISON        CLOUDY    30  30 100 NW5       29.89R VSB<1/4 WCI  25
WILLMAR        FAIR      30  28  93 NW7       29.87R WCI  23
$$
MNZ033>034-036-042>043-049>051-058-059-271600-
   Central Minnesota

CITY           SKY/WX    TMP DP  RH WIND       PRES   REMARKS
ST CLOUD       SUNNY     29  27  92 N6        29.84R WCI  23
SAUK CENTRE    FOG       25  24  99 NW6       29.86R VSB 1/4 WCI  18
PAYNESVILLE    SUNNY     32  30  93 NE6       29.85R WCI  26
AITKIN         CLOUDY    27  27 100 N7        29.82R WCI  19
PINE RIVER     CLOUDY    30  27  86 NE5       29.87R WCI  25
BRAINERD       CLOUDY    29  26  89 N3        29.84R
STAPLES        CLOUDY    28  28 100 CALM      29.84R FOG
LONG PRAIRIE   SNOW      25  25 100 CALM      29.85R VSB 1/4
LITTLE FALLS   CLOUDY    28  28 100 CALM      29.85R FOG
CAMP RIPLEY    CLOUDY    28  28  98 CALM      29.85R
LITCHFIELD     SUNNY     34  28  80 NW3       29.84R
BUFFALO        SUNNY     30  29  95 MISG      29.85R
MAPLE LAKE       N/A     32  32  99 NW5       29.85R WCI  27
HUTCHINSON     MOSUNNY   33  29  85 W6        29.86R WCI  28
$$
MNZ037-044-045-052-053-271600-
   East Central Minnesota

CITY           SKY/WX    TMP DP  RH WIND       PRES   REMARKS
PRINCETON      SUNNY     30  28  93 N8        29.84R WCI  23
MORA           CLOUDY    27  27 100 CALM      29.85R FOG
CAMBRIDGE      SUNNY     30  25  80 N3        29.84R
RUSH CITY      MOSUNNY   29  28  96 N6        29.84R FOG     WCI  22
MOOSE LAKE     MOSUNNY   30  30 100 CALM      29.81R
HINCKLEY       CLOUDY    30  30 100 CALM      29.84R FOG
CLOQUET        CLOUDY    28  27  93 CALM      29.80R
MCGREGOR       CLOUDY    30  28  93 N5        29.82R WCI  25
$$
MNZ071>073-080-081-089-090-097-098-271600-
   Southwest Minnesota

CITY           SKY/WX    TMP DP  RH WIND       PRES   REMARKS
MONTEVIDEO     FOG       27  27 100 N6        29.86R VSB<1/4 WCI  20
GRANITE FALLS  MOSUNNY   33  30  88 W8        29.88R WCI  26
CANBY          MOSUNNY   32  26  77 W6        29.87R WCI  26
MARSHALL       MOSUNNY   33  25  72 NW7       29.86R WCI  27
REDWOOD FALLS  SUNNY     35  26  69 W9        29.85R WCI  28
OLIVIA         SUNNY     32  28  86 NW9       29.85R WCI  24
PIPESTONE      MOSUNNY   34  28  80 CALM      29.84R
WINDOM         MOSUNNY   34  28  80 SW3       29.85R
WORTHINGTON    MOSUNNY   35  29  78 SW6       29.86R WCI  30
JACKSON        MOSUNNY   32  28  86 SW7       29.87R WCI  26
TRACY          MOSUNNY   36  26  68 NW5       29.85R
SLAYTON        MOSUNNY   35  27  72 SW9       29.84R WCI  28
$$
MNZ065>067-074>077-082>085-091>093-271600-
   South Central Minnesota

CITY           SKY/WX    TMP DP  RH WIND       PRES   REMARKS
MANKATO        SUNNY     33  29  85 S3        29.87R
NEW ULM        SUNNY     36  28  75 W8        29.86R
ST JAMES       SUNNY     36  30  80 CALM      29.86R
FAIRMONT       SUNNY     34  27  75 SW8       29.88R WCI  27
GLENCOE        SUNNY     33  28  83 W3        29.85R
FARIBAULT      SUNNY     30  27  86 S3        29.87R
OWATONNA       SUNNY     27  25  93 SW5       29.86R WCI  21
WASECA         SUNNY     28  23  80 W3        29.87R
ALBERT LEA     SUNNY     32  27  80 SW5       29.86R WCI  27
$$
MNZ078>079-086>088-094>096-271600-
   Southeast Minnesota

CITY           SKY/WX    TMP DP  RH WIND       PRES   REMARKS
ROCHESTER      SUNNY     29  24  82 SW12      29.86R WCI  19
RED WING       SUNNY     34  27  75 CALM      29.87R
STANTON        SUNNY     32  27  81 CALM      29.86R
DODGE CENTER   SUNNY     28  25  86 SW9       29.85R WCI  20
WINONA         SUNNY     34  30  86 SE5       29.89R WCI  30
AUSTIN         SUNNY     25  25 100 CALM      29.87R
PRESTON        SUNNY     31  26  81 S5        29.88R WCI  26
$$
ABBREVIATIONS USED IN REMARKS
   TC - TEMPERATURES IN CELSIUS
  WCI - WIND CHILL INDEX
   HX - HEAT INDEX
  VSB - VISIBILITY
$$




USA.gov is the U.S. government's official web portal to all federal, state and local government web resources and services.